Regional Weather Roundup
Issued by NWS

Home | Current Version | Previous Version | Text Only | Print | Product List | Glossary Off
Versions: 1 2 3 4 5 6 7 8 9 10 11 12 13 14 15 16 17 18 19 20 21 22 23 24 25 26 27 28 29 30 31 32 33 34 35 36 37 38 39 40 41 42 43 44 45 46 47 48 49 50

000
ASUS45 KCYS 021010
RWRWY

WYOMING REGIONAL WEATHER ROUNDUP
NATIONAL WEATHER SERVICE CHEYENNE WY
400 AM MDT SUN AUG 02 2015

NOTE:  "FAIR" INDICATES FEW OR NO CLOUDS BELOW 12,000 FEET
WITH NO SIGNIFICANT WEATHER AND/OR OBSTRUCTIONS TO VISIBILITY.

WYZ001-021100-
YELLOWSTONE NATIONAL PARK

CITY           SKY/WX    TMP DP  RH WIND       PRES   REMARKS
LK YELLOWSTONE   N/A     42  35  76 CALM      30.34R
W YELLOWSTONE  NOT AVBL

$$
WYZ002>013-054>058-071-098>099-021100-
NORTHERN WYOMING

CITY           SKY/WX    TMP DP  RH WIND       PRES   REMARKS
JACKSON        NOT AVBL
CODY           FAIR      70  30  23 SW8       30.06R
GREYBULL       FAIR      65  33  30 SE3       29.98R
WORLAND        FAIR      54  23  30 SE5       29.98F
SHERIDAN       FAIR      65  38  36 CALM      29.96S
BUFFALO        FAIR      70  31  23 NW5       30.04F
GILLETTE       FAIR      70  38  31 W6        29.98F
HULETT         FAIR      63  50  63 CALM      29.99F
NEWCASTLE      FAIR      61  50  67 E5        30.00S

$$
WYZ014>020-022>026-101>103-021100-
CENTRAL WYOMING

CITY           SKY/WX    TMP DP  RH WIND       PRES   REMARKS
BIG PINEY      FAIR      48  32  53 CALM      30.24S
PINEDALE       FAIR      43  32  65 NW5       30.25S
DUBOIS         FAIR      50  28  43 NW12      30.27R
LANDER         FAIR      63  32  31 W6        30.11R
RIVERTON       FAIR      63  33  32 NW13      30.11R
CASPER         FAIR      53  33  46 W3        30.08S
DOUGLAS        FAIR      58  52  80 CALM      30.06S

$$
WYZ021-027>030-104>119-021100-
SOUTHERN WYOMING

CITY           SKY/WX    TMP DP  RH WIND       PRES   REMARKS
EVANSTON       FAIR      60  29  30 SE6       30.23S
KEMMERER       FAIR      54  30  40 N6        30.25R
FORT BRIDGER   SUNNY     64  28  25 SW6       30.24S
ROCK SPRINGS   FAIR      59  25  27 S3        30.18S
DIXON          FAIR      53  38  58 SE3       30.22R
RAWLINS        FAIR      51  34  52 CALM      30.19R
SARATOGA       FAIR      52  32  46 S10       30.21S
LARAMIE        FAIR      51  46  83 S8        30.21F
CHEYENNE       FAIR      58  51  78 W13       30.13F
TORRINGTON     FAIR      61  54  77 CALM      30.00F
PINE BLUFFS    FAIR      55  52  88 W3        30.07F

$$


USA.gov is the U.S. government's official web portal to all federal, state and local government web resources and services.